STARLINK-33904, 63887

Orbit data source: Space-Track

STARLINK-33904, 63887 is a payload satellite owned by SpaceX/Seattle (US) in LEO that was launched on Sat, 10 May 2025 UTC via an FALCON 9 launch vehicle from the Air Force Western Test Range (AFWTR). Payload-class satellites include a variety of spacecraft equipped with specific instruments for various scientific and technological missions. These include communications satellites like Starlink; space stations such as the ISS; scientific satellites like the Hubble; Earth observation satellites from companies like Planet Labs, Umbra, and HawkEye 360; GPS; miniature CubeSats for education and research; and military/defense satellites.

Loading next visibility...
Identifier
63887, 2025-094Z
Orbit
LEO
Country
Flag of USUS
Related business
Manufacturer
SpaceX/Seattle
Mission
Operational Commercial Communications
Bus & Motor
STARLINK V2MO, Unknown motor
Mass
575 kg wet, ~530 kg dry
Launch date (UTC)
2025-05-10 (1 year ago)
Launch vehicle
FALCON 9
Launch site
Air Force Western Test Range (AFWTR)
Object type
Payload
Rocket body
Debris
Shape & HBR
Box + 2 Pan, 17.7 m
Radar Cross Section
36.964 m², Large (>1 m²)

Expand to show TLE details & history
Last TLE update: 1 day ago

TLE from 1 day ago
0 STARLINK-33904
1 63887U 25094Z   26170.87703387  .00016580  00000-0  13922-2 0  9990
2 63887  70.0030 336.6510 0001866 253.7093 106.3861 14.98384982 62513
Epoch: 2026-06-19T21:02Z
TLE epoch observation values (Epoch: 2026-06-19T21:02:55.726Z)
Latitude
-0.00002°
Longitude
112.81909°
Altitude
574.676 km
Speed
7.574 km/s
True Right ascension
22h 26m 36s
True Declination
0° 00' 00"
Sunlit
Object was in daylight at epoch
Visualization orbit readout
Latitude
Unknown
Longitude
Unknown
Altitude
Unknown
Speed
Unknown
Apparent Right ascension
Unknown
Apparent Declination
Unknown
Sunlit
N/A
Visualization observer readout
Local Sidereal Time
08:33:30
Azimuth
Unknown
Elevation
Unknown
Doppler factor
Unknown
Orbital elements
Apogee altitude
571.13 km
Perigee altitude
568.537 km
Semi-major axis
6,947.971 km
Eccentricity
0.00019
Inclination
70.003°
RAAN
336.651°
Arg. of periapsis
253.7093°
True anomaly
106.40661°
Mean anomaly
106.3861°
Eccentric anomaly
106.39636°
Mean motion
3.74763 °/min
Orbital period
96.06 mins
BSTAR
0.0013922
Loading maneuver chart data...
Computing Atmospheric mass density...
Loading historical data...
Loading historical data...
Loading historical data...
Loading historical data...
Loading historical data...
Loading historical data...
Loading historical data...

Documentation

Showing up to 5 results
|